STARLINK-34094, 63822

Orbit data source: Space-Track

STARLINK-34094, 63822 is a payload satellite owned by SpaceX/Seattle (US) in LEO that was launched on Sun, 04 May 2025 UTC via an FALCON 9 launch vehicle from the Air Force Eastern Test Range (AFETR). Payload-class satellites include a variety of spacecraft equipped with specific instruments for various scientific and technological missions. These include communications satellites like Starlink; space stations such as the ISS; scientific satellites like the Hubble; Earth observation satellites from companies like Planet Labs, Umbra, and HawkEye 360; GPS; miniature CubeSats for education and research; and military/defense satellites.

Loading next visibility...
Identifier
63822, 2025-092U
Orbit
LEO
Country
Flag of USUS
Related business
Manufacturer
SpaceX/Seattle
Mission
Operational Commercial Communications
Bus & Motor
STARLINK V2MO, Unknown motor
Mass
575 kg wet, ~530 kg dry
Launch date (UTC)
2025-05-04 (6 months ago)
Launch vehicle
FALCON 9
Launch site
Air Force Eastern Test Range (AFETR)
Object type
Payload
Rocket body
Debris
Shape & HBR
Box + 2 Pan, 17.7 m
Radar Cross Section
36.964 m², Large (>1 m²)

Expand to show TLE details & history
Last TLE update: 18 hours ago

TLE from 18 hours ago
0 STARLINK-34094
1 63822U 25092U   25297.11172029  .00053227  00000-0  19283-2 0  9991
2 63822  43.0021 220.6510 0001899 282.6476  77.4163 15.27606599 27817
Epoch: 2025-10-24T02:40Z
TLE epoch observation values (Epoch: 2025-10-24T02:40:52.633Z)
Latitude
-0.00002°
Longitude
147.67037°
Altitude
482.462 km
Speed
7.626 km/s
True Right ascension
14h 42m 36s
True Declination
0° 00' 00"
Sunlit
Object was in daylight at epoch
Visualization orbit readout
Latitude
Unknown
Longitude
Unknown
Altitude
Unknown
Speed
Unknown
Apparent Right ascension
Unknown
Apparent Declination
Unknown
Sunlit
N/A
Visualization observer readout
Local Sidereal Time
16:02:45
Azimuth
Unknown
Elevation
Unknown
Doppler factor
Unknown
Orbital elements
Apogee altitude
486.218 km
Perigee altitude
483.611 km
Semi-major axis
6,863.051 km
Eccentricity
0.00019
Inclination
43.0021°
RAAN
220.651°
Arg. of periapsis
282.6476°
True anomaly
77.43754°
Mean anomaly
77.4163°
Eccentric anomaly
77.42692°
Mean motion
3.8174 °/min
Orbital period
94.31 mins
BSTAR
0.0019283
Loading maneuver chart data...
Computing Atmospheric mass density...
Loading historical data...
Loading historical data...
Loading historical data...
Loading historical data...
Loading historical data...
Loading historical data...
Loading historical data...

Documentation

Showing up to 5 results
|